Probability
0 0 0 0 0 0 0 0 1 3 9 15 18 20 22 22 21 18 12 9 7 5 3 2 1 0 0 0 0 0 0 0 0 0 0 0 0 0 0 0 0 0 0 0
0 0 0 0 0 0 0 1 2 4 8 12 16 20 21 21 19 15 10 6 4 3 1 1 0 0 0 0 0 0 0 0 0 0 0 0 0 0 0 0 0 0 0 0
0 0 0 0 0 0 1 2 3 4 6 9 13 18 22 21 16 10 6 4 3 1 0 0 0 0 0 0 0 0 0 0 0 0 0 0 0 0 0 0 0 0 0 0
0 0 0 0 0 1 1 2 2 3 4 6 9 15 20 19 13 7 5 4 2 1 0 0 0 0 0 0 0 0 0 0 0 0 0 0 0 0 0 0 0 0 0 0
0 0 0 0 1 1 1 2 2 2 2 3 5 9 12 13 11 7 5 4 2 1 0 0 0 0 0 0 0 0 0 0 0 0 0 0 0 0 0 0 0 0 0 0
0 0 0 1 1 1 1 2 2 2 1 1 2 4 7 10 10 8 6 3 1 0 0 0 0 0 0 0 0 0 0 0 0 0 0 0 0 0 0 0 0 0 0 0
0 0 0 1 3 3 3 4 3 3 2 2 3 5 7 8 8 7 5 3 1 0 0 0 0 0 0 0 0 0 0 0 0 0 0 0 0 0 0 0 0 0 0 0
0 0 0 1 3 4 5 5 4 4 3 4 5 6 7 7 7 6 3 1 0 0 0 0 0 0 0 0 0 0 0 0 0 0 0 0 0 0 0 0 0 0 0 0
0 0 0 0 1 3 4 4 4 3 4 4 5 5 5 6 6 5 2 0 0 0 0 0 0 0 0 0 0 0 0 0 0 0 0 0 0 0 0 0 0 0 0 0
0 0 0 1 1 1 1 3 3 3 3 4 4 5 5 6 5 4 1 1 1 0 0 0 0 0 0 0 0 0 0 0 0 0 0 0 0 0 0 0 0 0 0 0
0 0 0 1 1 1 1 3 3 3 3 3 4 5 6 5 4 3 2 1 0 0 0 0 0 0 0 0 0 0 0 0 0 0 0 0 0 0 0 0 0 0 0 0
0 0 0 1 1 1 3 4 4 3 3 3 4 6 5 4 3 3 2 1 0 0 0 0 0 0 0 0 0 0 0 0 0 0 0 0 0 0 0 0 0 0 0 0
0 0 0 0 0 1 2 4 4 3 3 4 5 6 4 3 2 2 1 0 0 0 0 0 0 0 0 0 0 0 0 0 0 0 0 0 0 0 0 0 0 0 0 0
0 0 0 0 0 0 1 2 2 3 4 5 6 5 3 1 1 1 0 0 0 0 0 0 0 0 0 0 0 0 0 0 0 0 0 0 0 0 0 0 0 0 0 0
0 0 0 0 0 0 0 0 1 2 4 5 5 4 3 1 0 0 0 0 0 0 0 0 0 0 0 0 0 0 0 0 0 0 0 0 0 0 0 0 0 0 0 0
0 0 0 0 0 0 0 0 0 2 3 3 2 2 2 1 0 0 0 0 0 0 0 0 0 0 0 0 0 0 0 0 0 0 0 0 0 0 0 0 0 0 0 0
0 0 0 0 0 0 0 0 0 1 1 1 0 1 1 1 0 0 0 0 0 0 0 0 0 0 0 0 0 0 0 0 0 0 0 0 0 0 0 0 0 0 0 0
0 0 0 0 0 0 0 0 0 0 0 0 0 0 0 0 0 0 0 0 0 0 0 0 0 0 0 0 0 0 0 0 0 0 0 0 0 0 0 0 0 0 0 0
0 0 0 0 0 0 0 0 0 0 0 0 0 0 0 0 0 0 0 0 0 0 0 0 0 0 0 0 0 0 0 0 0 0 0 0 0 0 0 0 0 0 0 0
0 0 0 0 0 0 0 0 0 0 0 0 0 0 0 0 0 0 0 0 0 0 0 0 0 0 0 0 0 0 0 0 0 0 0 0 0 0 0 0 0 0 0 0
0 0 0 0 0 0 0 0 0 0 0 0 0 0 0 0 0 0 0 0 0 0 0 0 0 0 0 0 0 0 0 0 0 0 0 0 0 0 0 0 0 0 0 0
0 0 0 0 0 0 0 0 0 0 0 0 0 0 0 0 0 0 0 0 0 0 0 0 0 0 0 0 0 0 0 0 0 0 0 0 0 0 0 0 0 0 0 0
0 0 0 0 0 0 0 0 0 0 0 0 0 0 0 0 0 0 0 0 0 0 0 0 0 0 0 0 0 0 0 0 0 0 0 0 0 0 0 0 0 0 0 0
0 0 0 0 0 0 0 0 0 0 0 0 0 0 0 0 0 0 0 0 0 0 0 0 0 0 0 0 0 0 0 0 0 0 0 0 0 0 0 0 0 0 0 0
0 0 0 0 0 0 0 0 0 0 0 0 0 0 0 0 0 0 0 0 0 0 0 0 0 0 0 0 0 0 0 0 0 0 0 0 0 0 0 0 0 0 0 0
0 0 0 0 0 0 0 0 0 0 0 0 0 0 0 0 0 0 0 0 0 0 0 0 0 0 0 0 0 0 0 0 0 0 0 0 0 0 0 0 0 0 0 0
0 0 0 0 0 0 0 0 0 0 0 0 0 0 0 0 0 0 0 0 0 0 0 0 0 0 0 0 0 0 0 0 0 0 0 0 0 0 0 0 0 0 0 0
Wind_Speed
8 9 7 8 9 8 5 3 4 3 1 3 4 7 9 10 11 11 11 10 10 8 7 5 5 4 3 3 3 3 3 3 3 3 3 4 4 3 3 3 4 4 4 4
8 9 6 7 7 7 5 3 3 0 2 3 4 7 9 9 10 11 11 10 9 9 8 6 5 4 4 3 3 3 3 3 3 3 3 4 3 3 3 3 4 4 5 5
7 7 5 5 5 4 4 4 3 1 2 3 4 7 8 8 9 9 10 10 9 8 7 5 4 4 4 3 3 3 3 2 3 3 3 3 3 4 4 4 5 5 5 5
6 5 5 1 4 3 3 3 4 5 5 5 6 7 8 7 8 8 9 9 9 7 7 5 4 4 3 3 2 3 3 3 3 3 3 3 3 3 4 4 4 4 4 5
3 4 2 1 4 5 3 5 6 5 6 6 7 7 7 7 8 8 8 9 8 7 7 6 5 4 3 3 2 3 3 3 3 4 3 3 4 3 3 3 3 3 4 4
3 3 2 2 3 5 2 3 6 5 4 4 4 3 5 7 9 10 10 8 8 7 7 6 5 4 3 3 3 3 3 3 3 3 3 4 3 3 3 2 3 3 4 4
5 3 1 4 5 4 2 2 4 3 3 4 4 4 9 10 10 10 10 9 8 7 6 5 5 3 3 3 3 3 3 3 3 3 3 3 3 2 2 2 3 3 3 3
3 2 2 7 6 5 5 4 4 5 6 9 10 11 11 11 11 10 10 9 7 6 5 5 4 3 3 4 3 3 3 3 3 3 2 4 3 2 1 2 2 2 2 2
2 3 4 5 6 6 5 5 5 6 8 9 10 10 10 10 9 9 9 8 6 6 6 4 4 4 4 4 3 3 4 3 3 2 3 2 2 2 1 1 1 1 1 2
2 5 5 6 7 6 6 6 6 7 7 9 10 10 10 9 8 8 7 6 5 6 5 5 4 4 4 4 4 3 3 3 2 2 3 3 2 2 2 2 1 1 1 3
3 5 5 6 6 7 7 7 7 8 8 9 10 10 9 8 8 7 6 5 5 5 5 5 5 5 5 4 4 3 3 3 3 3 3 3 3 4 4 4 3 2 3 2
2 4 4 6 6 7 7 7 7 7 8 8 9 9 9 8 7 7 6 5 5 5 5 5 5 5 4 4 4 4 3 2 2 2 2 3 4 3 5 4 4 6 6 4
5 6 7 7 7 7 7 7 8 8 8 9 9 9 9 8 7 7 7 6 6 6 6 6 5 5 4 4 4 3 3 2 2 2 2 2 2 3 3 2 2 3 4 4
7 7 7 7 7 7 8 8 8 9 9 9 8 8 8 8 7 7 7 6 6 6 6 6 5 5 5 4 3 3 3 3 1 1 2 2 2 2 3 4 4 3 2 3
7 7 7 8 8 8 7 8 8 8 8 8 8 8 8 7 7 7 6 6 6 5 5 5 5 5 4 4 3 3 2 2 1 1 1 2 2 3 3 3 4 4 4 4
8 8 8 8 8 8 7 7 7 8 8 8 7 7 7 7 7 7 7 6 6 6 5 5 5 6 5 4 3 3 2 2 1 2 2 3 3 3 2 3 3 4 5 5
9 9 8 8 8 7 7 7 7 8 8 8 8 7 7 7 7 6 6 6 5 5 5 5 5 6 6 6 5 4 4 5 5 4 4 3 3 3 3 3 3 3 3 4
8 8 8 7 7 7 7 7 7 8 8 8 8 8 7 7 7 6 6 6 6 5 5 5 4 4 5 6 4 3 3 4 5 5 4 3 3 3 4 3 3 3 3 5
9 9 8 8 7 7 7 7 7 8 8 8 8 7 7 6 6 6 6 7 7 6 6 6 5 5 4 4 3 4 3 4 3 4 4 3 4 5 5 4 4 4 4 5
10 9 9 8 8 7 7 7 7 7 7 8 7 7 7 7 7 7 6 5 5 4 6 7 7 5 5 5 5 5 5 5 5 4 4 5 5 5 5 4 4 4 3 3
10 10 9 9 8 8 8 7 7 7 7 8 8 7 7 7 7 7 6 5 5 6 6 7 6 6 6 5 6 6 6 5 5 5 5 5 5 5 4 4 4 3 3 3
10 9 9 9 8 7 7 6 7 7 7 7 7 7 7 6 7 6 6 4 5 8 7 7 7 6 5 5 6 6 6 6 6 5 5 5 5 5 5 5 5 4 4 4
9 9 8 8 8 8 7 6 7 6 6 6 6 6 7 6 5 5 6 6 6 9 7 6 6 9 8 7 7 7 7 7 7 6 6 6 6 6 5 6 5 5 4 4
9 8 8 7 7 7 7 7 6 5 6 6 6 7 6 5 5 5 5 7 8 10 7 6 10 11 10 8 8 8 8 8 8 7 7 7 7 7 6 6 6 6 5 6
9 8 8 8 7 6 7 7 7 7 7 6 7 8 7 5 5 5 5 7 10 10 8 9 13 13 10 9 9 9 9 8 8 7 6 6 6 7 6 6 6 6 6 6
8 7 6 5 4 4 6 6 6 6 6 6 6 6 6 5 5 5 4 7 11 10 9 7 10 11 10 10 10 10 9 8 7 8 8 8 8 8 7 7 8 7 6 6
8 7 6 6 6 6 6 5 5 5 5 4 4 5 5 5 5 6 6 5 6 8 8 8 9 10 11 11 10 10 9 8 8 8 8 8 7 7 8 9 7 6 6 7
Wind_Direction
279 279 275 272 282 294 292 291 300 305 177 136 124 126 130 130 136 136 136 136 136 129 125 122 120 118 103 87 75 66 59 54 55 50 49 46 36 25 22 13 17 17 21 30
281 276 273 291 293 290 294 281 260 284 47 89 105 124 128 136 146 145 144 143 138 135 137 136 132 122 105 98 96 87 72 59 54 47 50 51 33 25 30 21 18 25 30 38
278 274 273 280 298 305 319 353 7 31 90 95 100 113 128 140 147 146 145 142 140 136 130 123 116 108 109 103 104 99 86 68 61 48 53 56 41 41 36 29 28 37 41 48
281 282 263 323 357 359 11 51 75 85 94 94 94 99 110 125 131 137 141 138 132 128 125 120 114 107 102 99 101 96 88 77 68 60 57 65 59 50 45 36 35 43 44 49
285 282 275 339 356 350 348 55 63 85 92 98 112 116 102 104 116 123 125 126 125 126 124 123 118 111 109 101 88 84 82 76 68 63 58 67 71 58 54 52 52 54 50 45
268 284 279 10 343 316 294 95 52 68 100 113 148 162 128 121 118 115 115 119 123 125 124 123 118 124 128 119 104 93 84 76 70 69 67 72 70 65 63 60 67 66 61 52
262 258 86 1 338 314 308 62 33 52 74 92 83 92 121 123 119 119 121 123 126 125 126 128 134 138 129 116 103 92 83 76 75 77 84 85 76 70 78 70 70 73 72 67
286 287 37 11 15 39 61 66 54 64 83 96 102 110 116 120 123 126 128 130 130 129 128 129 135 139 124 110 101 100 93 86 83 84 95 95 95 85 78 90 91 91 92 88
33 78 88 61 68 77 79 73 71 81 94 110 115 118 118 121 125 129 132 133 134 135 134 137 144 143 122 115 113 107 104 94 90 89 82 91 117 121 104 81 81 102 104 96
112 111 104 89 86 79 77 82 86 93 103 113 115 120 122 124 127 129 131 137 140 140 136 134 136 131 125 126 124 120 117 115 116 110 100 80 50 51 57 48 21 34 91 93
128 127 113 91 85 87 86 91 96 103 106 111 118 124 126 127 128 128 132 136 142 142 135 127 123 123 130 132 134 128 124 130 133 116 104 86 66 40 43 49 41 26 29 48
113 123 119 114 104 104 102 100 103 107 109 113 120 125 126 127 129 133 135 140 140 138 134 131 132 131 131 130 134 138 144 146 147 141 138 141 129 103 53 71 74 67 57 55
94 103 110 115 110 111 112 111 113 115 118 121 124 128 130 132 136 140 143 145 143 144 142 140 141 138 137 140 144 153 159 158 169 157 156 159 151 151 149 130 81 70 69 75
111 119 125 121 120 119 117 116 114 116 118 121 127 129 130 134 139 140 141 144 145 145 143 143 144 142 147 149 151 163 171 162 188 178 169 188 189 199 188 175 170 171 182 191
139 137 135 131 129 127 127 126 125 123 122 125 129 133 137 140 143 145 146 148 149 152 151 151 152 152 157 160 162 169 180 166 173 180 213 222 228 236 227 192 173 168 166 185
147 143 144 146 144 144 144 141 136 133 133 134 136 139 142 144 145 150 154 158 160 162 157 157 157 156 162 168 170 173 167 151 212 246 239 230 239 246 238 214 195 179 182 180
157 157 158 156 155 159 157 152 144 141 141 143 142 144 145 146 149 156 160 163 162 163 162 164 166 166 167 173 190 200 192 179 194 233 242 247 250 246 243 227 204 197 193 171
160 157 157 157 160 163 160 155 148 145 144 146 147 148 151 156 160 160 163 162 164 167 168 170 172 180 178 179 193 212 202 197 196 213 224 237 259 261 255 241 220 212 183 172
157 154 156 160 163 161 158 154 148 144 145 149 151 153 158 165 167 167 170 176 179 179 177 172 173 194 192 186 209 210 219 230 221 212 220 222 241 252 251 239 227 219 209 185
157 158 159 162 162 156 151 149 148 146 151 154 157 159 166 173 175 174 177 188 192 186 171 169 180 197 207 196 215 228 217 228 234 230 224 231 241 248 253 249 237 228 220 210
159 161 165 165 159 157 151 150 154 155 157 163 167 170 172 175 180 178 184 194 180 175 173 171 192 202 207 205 210 235 227 226 231 231 234 240 242 248 253 258 257 253 239 229
160 161 163 156 156 153 150 155 160 160 164 172 176 174 175 180 187 187 194 199 181 170 185 193 200 201 199 213 229 235 234 233 236 236 239 244 246 252 253 255 258 256 251 245
157 157 157 156 156 154 158 166 168 166 170 181 182 179 183 188 194 196 195 190 188 176 200 211 185 171 181 218 242 247 243 243 241 238 239 240 242 245 247 249 252 254 255 252
150 151 152 152 154 159 168 175 168 171 179 188 188 186 189 192 199 209 205 183 177 173 201 183 165 173 192 229 242 248 246 245 247 247 246 245 244 244 244 244 247 249 249 253
156 157 156 162 168 170 173 179 177 185 196 196 192 188 195 201 208 209 199 177 169 178 199 184 183 187 206 234 243 248 250 246 250 258 258 257 258 257 254 253 252 253 254 253
157 166 162 174 175 180 184 188 189 191 200 199 193 188 193 196 207 208 196 188 183 196 212 195 193 200 219 234 242 246 248 245 243 245 249 253 258 263 266 265 264 263 262 261
166 166 169 186 192 199 193 187 191 197 201 201 194 189 193 196 202 209 210 207 193 198 213 217 210 206 216 228 238 242 243 244 246 249 251 249 250 253 257 259 260 261 261 263